Flag Weather past 2 weeks in Ramat Gan, Israel

Now
70 °F

Mild.


Feels Like: 70 °F
Forecast: 65 / 72 °F
Wind: 8 mph from Southeast

Location: Dov Airport

Current Time: Oct 31, 2014 at 9:53:24 AM

Latest Report: Oct 31, 2014 at 8:50 AM


Visibility: N/A

Pressure: 29.89 "Hg

Humidity: 83%

Dew point: 64 °F

Location of Ramat GanLocation

Historic Weather in Ramat Gan — Graph

°F

Ramat Gan temperature yesterday

Maximum temperature yesterday: 79 °F (at 10:50 AM)
Minimum temperature yesterday: 66 °F (at 5:50 AM)
Average temperature yesterday: 71 °F

Past Weeks' High & Low Weather Summary

 TemperatureHumidityPressure
High82 °F (Oct 18, 12:50 PM)94% (Oct 19, 5:50 PM)30.12 "Hg (Oct 19, 5:50 PM)
Low63 °F (Oct 21, 5:50 AM)37% (Oct 22, 9:50 AM)29.71 "Hg (Oct 19, 2:50 PM)
Average75 °F62%29.95 "Hg
* Reported Oct 16 8:50 AM — Oct 31 7:56 AM, Ramat Gan, Weather by CustomWeather, © 2014

Note: Actual official high and low records may vary slightly from our data, if they occured in-between our weather recording intervals... More about our weather records

Advertising

Ramat Gan weather history for previous 24 hours

 ConditionsComfort  
Time TempWeatherWind HumidityBarometerVisibility
7:56 AM
Oct 31
66 °FLight rain. Partly sunny.9 mph83%29.89 "HgN/A
6:50 AM64 °FScattered clouds.8 mph88%29.89 "HgN/A
5:50 AM64 °FMild.7 mph88%29.89 "HgN/A
10:50 PM
Oct 30
66 °FPassing clouds.6 mph78%29.92 "HgN/A
9:50 PM68 °FThundershowers. Passing clouds.15 mph73%29.92 "HgN/A
8:50 PM68 °FThundershowers. Overcast.No wind83%29.89 "HgN/A
7:50 PM68 °FPassing clouds.2 mph88%29.92 "HgN/A
6:50 PM68 °FPassing clouds.6 mph88%29.92 "HgN/A
5:50 PM70 °FPassing clouds.1 mph83%29.92 "HgN/A
4:50 PM68 °FScattered clouds.2 mph83%29.92 "HgN/A
3:50 PM68 °FScattered clouds.5 mph83%29.92 "Hg5 mi
2:50 PM75 °FScattered clouds.10 mph61%29.89 "HgN/A
1:50 PM79 °FPassing clouds.9 mph54%29.89 "HgN/A
12:50 PM77 °FPassing clouds.9 mph54%29.92 "HgN/A
11:50 AM77 °FScattered clouds.7 mph61%29.92 "HgN/A
10:50 AM79 °FScattered clouds.5 mph61%29.95 "HgN/A
9:50 AM77 °FScattered clouds.7 mph61%29.95 "HgN/A
Weather by CustomWeather, © 2014

See weather overviewHow to use our weather pages